This is the latest recevied weather packets stored in our database for station/object KB0RPJ. If no packets are shown the sender has not sent any weather packets the latest 10 day(s).
| Time | Temp. | Humidity | Pressure | Rain* | Wind** | Luminosity | Snow |
|---|---|---|---|---|---|---|---|
| 1777568105 | 16.67° C | 52% | 1016.4 hPa | 0 mm | - | 991 W/m² | - |
| 1777567809 | 16.67° C | 53% | 1016.6 hPa | 0 mm | - | 594 W/m² | - |
| 1777567507 | 16.67° C | 53% | 1016.5 hPa | 0 mm | - | 926 W/m² | - |
| 1777567206 | 16.67° C | 52% | 1016.7 hPa | 0 mm | - | 895 W/m² | - |
| 1777566905 | 16.67° C | 53% | 1016.6 hPa | 0 mm | - | 848 W/m² | - |
| 1777566605 | 16.11° C | 56% | 1016.6 hPa | 0 mm | - | 831 W/m² | - |
| 1777566305 | 16.11° C | 54% | 1016.6 hPa | 0 mm | - | 822 W/m² | - |
| 1777566005 | 15.56° C | 55% | 1016.7 hPa | 0 mm | - | 595 W/m² | - |
| 1777565705 | 15.56° C | 56% | 1016.9 hPa | 0 mm | - | 780 W/m² | - |
| 1777565405 | 15.56° C | 56% | 1016.8 hPa | 0 mm | - | 496 W/m² | - |
| 1777565104 | 15.56° C | 58% | 1017 hPa | 0 mm | - | 682 W/m² | - |
| 1777564805 | 15.56° C | 58% | 1017 hPa | 0 mm | - | 431 W/m² | - |
| 1777564505 | 15.56° C | 56% | 1017 hPa | 0 mm | - | 411 W/m² | - |
| 1777564205 | 15.56° C | 55% | 1017 hPa | 0 mm | - | 468 W/m² | - |
| 1777563905 | 15° C | 59% | 1016.9 hPa | 0 mm | - | 790 W/m² | - |
| 1777563606 | 15° C | 63% | 1017 hPa | 0 mm | - | 710 W/m² | - |
| 1777563317 | 14.44° C | 66% | 1017 hPa | 0 mm | - | 684 W/m² | - |
| 1777563005 | 14.44° C | 66% | 1017 hPa | 0 mm | - | 685 W/m² | - |
| 1777562705 | 13.89° C | 66% | 1017 hPa | 0 mm | - | 421 W/m² | - |
| 1777562424 | 13.89° C | 66% | 1017.1 hPa | 0 mm | - | 577 W/m² | - |
| 1777562105 | 13.33° C | 68% | 1017.1 hPa | 0 mm | - | 289 W/m² | - |
| 1777561806 | 12.78° C | 71% | 1017.1 hPa | 0 mm | - | 436 W/m² | - |
| 1777561506 | 12.78° C | 75% | 1017.2 hPa | 0 mm | - | 363 W/m² | - |
| 1777561205 | 12.22° C | 76% | 1017.3 hPa | 0 mm | - | 325 W/m² | - |
| 1777560908 | 11.67° C | 75% | 1017.3 hPa | 0 mm | - | 302 W/m² | - |
* Rain latest hour (hover to see other rain measurements)
** Current wind speed in m/s (hover to see current wind gust speed)